This is the latest recevied weather packets stored in our database for station/object N3EG. If no packets are shown the sender has not sent any weather packets the latest 10 day(s).
| Time | Temp. | Humidity | Pressure | Rain* | Wind** | Luminosity | Snow |
|---|---|---|---|---|---|---|---|
| 1788553803 | 20° C | 67% | 1013.3 hPa | 0 mm | - | - | - |
| 1788553502 | 20° C | 67% | 1013.4 hPa | 0 mm | - | - | - |
| 1788553203 | 19.44° C | 66% | 1013.3 hPa | 0 mm | - | - | - |
| 1788552903 | 19.44° C | 67% | 1013.4 hPa | 0 mm | - | - | - |
| 1788552602 | 19.44° C | 68% | 1013.4 hPa | 0 mm | - | - | - |
| 1788552303 | 19.44° C | 67% | 1013.4 hPa | 0 mm | - | - | - |
| 1788552003 | 18.89° C | 75% | 1013.5 hPa | 0 mm | - | - | - |
| 1788551702 | 18.33° C | 75% | 1013.4 hPa | 0 mm | - | - | - |
| 1788551403 | 18.33° C | 76% | 1013.5 hPa | 0 mm | - | - | - |
| 1788551103 | 17.78° C | 75% | 1013.6 hPa | 0 mm | - | - | - |
| 1788550802 | 17.78° C | 75% | 1013.6 hPa | 0 mm | - | - | - |
| 1788550503 | 17.78° C | 76% | 1013.6 hPa | 0 mm | - | - | - |
| 1788550202 | 17.78° C | 79% | 1013.6 hPa | 0 mm | - | - | - |
| 1788549903 | 17.22° C | 78% | 1013.6 hPa | 0 mm | - | - | - |
| 1788549603 | 17.22° C | 78% | 1013.7 hPa | 0 mm | - | - | - |
| 1788549302 | 17.22° C | 79% | 1013.7 hPa | 0 mm | - | - | - |
| 1788549003 | 17.22° C | 81% | 1013.7 hPa | 0 mm | - | - | - |
| 1788548703 | 16.67° C | 83% | 1013.8 hPa | 0 mm | - | - | - |
| 1788548402 | 16.67° C | 82% | 1013.7 hPa | 0 mm | - | - | - |
| 1788548103 | 16.67° C | 82% | 1013.9 hPa | 0 mm | - | - | - |
| 1788547803 | 16.67° C | 83% | 1013.9 hPa | 0 mm | - | - | - |
| 1788547502 | 16.11° C | 84% | 1013.9 hPa | 0 mm | - | - | - |
| 1788547203 | 16.11° C | 83% | 1014 hPa | 0 mm | - | - | - |
| 1788546903 | 15.56° C | 84% | 1014 hPa | 0 mm | - | - | - |
| 1788546602 | 15.56° C | 85% | 1013.9 hPa | 0 mm | - | - | - |
* Rain latest hour (hover to see other rain measurements)
** Current wind speed in m/s (hover to see current wind gust speed)